Погода в Грэсовском

Россия / Республика Крым     45°00′27″N   34°01′39″E
темп.,
°C
ветер,
м/с
пор.,
м/с
влажн.,
%
обл.,
%
осадки,
мм/ч
давл.,
гПа
погр.,
м
17 апреля, сб
сб1700:00+4ю359221 0.0 102192
03:00+3ю33914 0.0 102151
06:00+3ю338196 0.0 102228
09:00+9ююз225328 0.0 1022492
12:00+13зсз113896 0.0 10211553
15:00+14зсз434394 0.0 10201356
18:00+11з43585 0.0 1020444
21:00+7ююв117349 0.0 102013
18 апреля, вс
вс1800:00+6юв226643 0.0 101825
03:00+6ю2259100 0.0 101821
06:00+6вюв226799 0.0 101712
09:00+11всв3466100 0.0 1017380
12:00+15св225873 0.0 1016789
15:00+15сз226283 0.0 1015593
18:00+14сз226889 0.0 1014420
21:00+10з2377100 0.0 1016155
19 апреля, пн
пн1900:00+9з1270100 0.0 1015103
03:00+9з0176100 0.0 101552
06:00+10вюв1176100 0.0 101430
09:00+13св227188 0.0 1014384
12:00+15з2269100 0.1 1012613
15:00+11з1296100 5.4 1012133
18:00+11всв2396100 4.7 1010167
21:00+12юв1294100 4.9 100837
20 апреля, вт
вт2000:00+11ю2396100 3.5 100680
03:00+12ююз3495100 10.2 100396
06:00+12ююз51293100 5.6 1001546
09:00+11ююз101685100 6.2 10001173
12:00+9юз121991100 0.2 10011384
15:00+8юз142289100 0.6 10031620
18:00+8зюз141993100 0.6 10061393
21:00+8зюз10159068 0.8 1011986
21 апреля, ср
ср2100:00+7юз713934 0.0 1014470
03:00+6ююз5119212 0.0 1015274
06:00+6ю47885 0.0 1016132
09:00+12ююз697317 0.1 1017788
12:00+14юз8105890 0.4 10181581
15:00+14зюз810578 0.4 10181381
18:00+11зюз457099 0.0 1019539
21:00+8юз118641 0.0 102114